Location: Invercargill
(46.4000°S, 168.3500°E)
Time: 15:16:36
(UTC+13:00)

BREEZE-M DEB (TANK) - Pass Details

Date: 24 January 2019
Orbit: 278 x 14014 km, 46.1° (Epoch: 16 February)

Event Time Altitude Azimuth Distance (km) Brightness Sun altitude
Rises 22:18:04 0° 302° (WNW) 4,624 7.3 -7.7°
Reaches altitude 10° 22:22:34 10° 308° (NW) 2,480 5.8 -8.3°
Maximum altitude 22:26:52 36° 16° (NNE) 705 2.5 -8.9°
Drops below altitude 10° 22:29:04 10° 87° (E) 1,242 3.7 -9.1°
Enters shadow 22:29:09 - 88° (E) 1,281 3.7 -9.2°
